When you browse on this site, cookies collect data to enhance your experience and personalize the content and advertising you see.
Visit our Privacy Policy to learn more. By continuing to use the site, you agree to this use of cookies and data.
  • In Latvia
  • List of Countries
  • For 7 days
  • Water Temperature
  • Weather Map
  • Weather Widgets
  • user-avatar
    Login

    Hourly Weather Al-Ahmadi

    Today, 21 September, Saturday

    Time Temperature Precipitation Wind Pressure Humidity
    00:00 +35°C° 0 mm 4 mps 745 mmHg 11%
    01:00 +34°C° 0 mm 4 mps 744 mmHg 12%
    02:00 +33°C° 0 mm 4 mps 744 mmHg 13%
    03:00 +33°C° 0 mm 3 mps 744 mmHg 16%
    04:00 +31°C° 0 mm 3 mps 744 mmHg 19%
    05:00 +31°C° 0 mm 3 mps 744 mmHg 22%
    06:00 +31°C° 0 mm 3 mps 745 mmHg 24%
    07:00 +34°C° 0 mm 3 mps 745 mmHg 22%
    08:00 +35°C° 0 mm 3 mps 745 mmHg 19%
    09:00 +37°C° 0 mm 3 mps 745 mmHg 18%
    10:00 +39°C° 0 mm 3 mps 745 mmHg 17%
    11:00 +40°C° 0 mm 3 mps 745 mmHg 15%
    12:00 +42°C° 0 mm 3 mps 745 mmHg 14%
    13:00 +42°C° 0 mm 3 mps 744 mmHg 15%
    14:00 +42°C° 0 mm 3 mps 744 mmHg 17%
    15:00 +41°C° 0 mm 2 mps 743 mmHg 17%
    16:00 +39°C° 0 mm 2 mps 743 mmHg 22%
    17:00 +37°C° 0 mm 2 mps 743 mmHg 27%
    18:00 +35°C° 0 mm 2 mps 743 mmHg 32%
    19:00 +34°C° 0 mm 3 mps 744 mmHg 32%
    20:00 +34°C° 0 mm 3 mps 744 mmHg 32%
    21:00 +33°C° 0 mm 3 mps 744 mmHg 32%
    22:00 +33°C° 0 mm 3 mps 744 mmHg 32%
    23:00 +31°C° 0 mm 2 mps 744 mmHg 32%

    Tomorrow, 22 September, Sunday

    Time Temperature Precipitation Wind Pressure Humidity
    00:00 +31°C° 0 mm 2 mps 744 mmHg 32%
    01:00 +30°C° 0 mm 2 mps 744 mmHg 30%
    02:00 +30°C° 0 mm 2 mps 744 mmHg 28%
    03:00 +30°C° 0 mm 2 mps 744 mmHg 26%
    04:00 +30°C° 0 mm 1 mps 744 mmHg 25%
    05:00 +30°C° 0 mm 1 mps 744 mmHg 25%
    06:00 +30°C° 0 mm 1 mps 745 mmHg 25%
    07:00 +32°C° 0 mm 1 mps 745 mmHg 21%
    08:00 +35°C° 0 mm 1 mps 746 mmHg 18%
    09:00 +39°C° 0 mm 1 mps 746 mmHg 14%
    10:00 +40°C° 0 mm 2 mps 746 mmHg 13%
    11:00 +42°C° 0 mm 2 mps 746 mmHg 12%
    12:00 +44°C° 0 mm 3 mps 745 mmHg 11%
    13:00 +44°C° 0 mm 3 mps 745 mmHg 13%
    14:00 +44°C° 0 mm 3 mps 744 mmHg 14%
    15:00 +44°C° 0 mm 3 mps 744 mmHg 15%
    16:00 +42°C° 0 mm 4 mps 744 mmHg 19%
    17:00 +40°C° 0 mm 4 mps 744 mmHg 23%
    18:00 +37°C° 0 mm 4 mps 744 mmHg 28%
    19:00 +36°C° 0 mm 4 mps 744 mmHg 28%
    20:00 +36°C° 0 mm 4 mps 745 mmHg 28%
    21:00 +35°C° 0 mm 4 mps 745 mmHg 28%
    22:00 +35°C° 0 mm 4 mps 745 mmHg 27%
    23:00 +35°C° 0 mm 4 mps 745 mmHg 27%

    Day after tomorrow, 23 September, Monday

    Time Temperature Precipitation Wind Pressure Humidity
    00:00 +35°C° 0 mm 4 mps 745 mmHg 26%
    01:00 +34°C° 0 mm 3 mps 745 mmHg 26%
    02:00 +32°C° 0 mm 2 mps 745 mmHg 25%
    03:00 +31°C° 0 mm 1 mps 745 mmHg 25%
    04:00 +32°C° 0 mm 2 mps 745 mmHg 23%
    05:00 +32°C° 0 mm 2 mps 746 mmHg 21%
    06:00 +33°C° 0 mm 3 mps 746 mmHg 19%
    07:00 +35°C° 0 mm 2 mps 747 mmHg 17%
    08:00 +37°C° 0 mm 2 mps 747 mmHg 15%
    09:00 +40°C° 0 mm 2 mps 747 mmHg 14%
    10:00 +41°C° 0 mm 2 mps 747 mmHg 13%
    11:00 +43°C° 0 mm 2 mps 747 mmHg 12%
    12:00 +45°C° 0 mm 2 mps 747 mmHg 11%
    13:00 +46°C° 0 mm 2 mps 746 mmHg 10%
    14:00 +46°C° 0 mm 2 mps 746 mmHg 10%
    15:00 +47°C° 0 mm 2 mps 745 mmHg 9%
    16:00 +45°C° 0 mm 3 mps 745 mmHg 12%
    17:00 +42°C° 0 mm 3 mps 745 mmHg 14%
    18:00 +40°C° 0 mm 4 mps 745 mmHg 16%
    19:00 +38°C° 0 mm 3 mps 745 mmHg 17%
    20:00 +38°C° 0 mm 3 mps 746 mmHg 17%
    21:00 +37°C° 0 mm 3 mps 746 mmHg 18%
    22:00 +37°C° 0 mm 3 mps 746 mmHg 17%
    23:00 +37°C° 0 mm 4 mps 746 mmHg 16%

    24 September, Tuesday

    Time Temperature Precipitation Wind Pressure Humidity
    00:00 +37°C° 0 mm 4 mps 746 mmHg 15%
    01:00 +37°C° 0 mm 4 mps 746 mmHg 15%
    02:00 +36°C° 0 mm 4 mps 746 mmHg 15%
    03:00 +35°C° 0 mm 4 mps 746 mmHg 15%
    04:00 +35°C° 0 mm 4 mps 746 mmHg 16%
    05:00 +34°C° 0 mm 4 mps 746 mmHg 17%
    06:00 +34°C° 0 mm 4 mps 746 mmHg 18%
    07:00 +36°C° 0 mm 4 mps 747 mmHg 16%
    08:00 +38°C° 0 mm 3 mps 747 mmHg 14%
    09:00 +40°C° 0 mm 2 mps 748 mmHg 13%
    10:00 +43°C° 0 mm 3 mps 747 mmHg 12%
    11:00 +45°C° 0 mm 3 mps 747 mmHg 11%
    12:00 +46°C° 0 mm 3 mps 746 mmHg 10%
    13:00 +47°C° 0 mm 3 mps 746 mmHg 9%
    14:00 +47°C° 0 mm 3 mps 745 mmHg 9%
    15:00 +47°C° 0 mm 2 mps 745 mmHg 8%
    16:00 +45°C° 0 mm 2 mps 745 mmHg 10%
    17:00 +42°C° 0 mm 2 mps 745 mmHg 11%
    18:00 +39°C° 0 mm 1 mps 744 mmHg 13%
    19:00 +39°C° 0 mm 2 mps 745 mmHg 13%
    20:00 +39°C° 0 mm 3 mps 745 mmHg 13%
    21:00 +38°C° 0 mm 3 mps 745 mmHg 13%
    22:00 +38°C° 0 mm 4 mps 745 mmHg 13%
    23:00 +38°C° 0 mm 4 mps 745 mmHg 14%

    25 September, Wednesday

    Time Temperature Precipitation Wind Pressure Humidity
    00:00 +39°C° 0 mm 5 mps 745 mmHg 14%
    01:00 +37°C° 0 mm 5 mps 745 mmHg 15%
    02:00 +36°C° 0 mm 4 mps 745 mmHg 16%
    03:00 +36°C° 0 mm 4 mps 745 mmHg 17%
    04:00 +35°C° 0 mm 4 mps 745 mmHg 18%
    05:00 +34°C° 0 mm 3 mps 745 mmHg 20%
    06:00 +34°C° 0 mm 2 mps 745 mmHg 21%
    07:00 +36°C° 0 mm 2 mps 746 mmHg 18%
    08:00 +38°C° 0 mm 2 mps 747 mmHg 15%
    09:00 +41°C° 0 mm 2 mps 747 mmHg 12%
    10:00 +42°C° 0 mm 2 mps 747 mmHg 11%
    11:00 +45°C° 0 mm 2 mps 747 mmHg 9%
    12:00 +47°C° 0 mm 2 mps 747 mmHg 8%
    13:00 +47°C° 0 mm 2 mps 746 mmHg 8%
    14:00 +48°C° 0 mm 2 mps 746 mmHg 7%
    15:00 +47°C° 0 mm 1 mps 745 mmHg 7%
    16:00 +45°C° 0 mm 1 mps 745 mmHg 8%
    17:00 +43°C° 0 mm 1 mps 745 mmHg 9%
    18:00 +41°C° 0 mm 1 mps 745 mmHg 10%
    19:00 +40°C° 0 mm 2 mps 745 mmHg 11%
    20:00 +39°C° 0 mm 2 mps 746 mmHg 11%
    21:00 +38°C° 0 mm 2 mps 746 mmHg 12%
    22:00 +37°C° 0 mm 2 mps 746 mmHg 13%
    23:00 +37°C° 0 mm 2 mps 746 mmHg 14%

    26 September, Thursday

    Time Temperature Precipitation Wind Pressure Humidity
    00:00 +36°C° 0 mm 2 mps 746 mmHg 14%
    01:00 +36°C° 0 mm 2 mps 746 mmHg 14%
    02:00 +36°C° 0 mm 3 mps 746 mmHg 14%
    03:00 +36°C° 0 mm 3 mps 746 mmHg 13%
    04:00 +35°C° 0 mm 2 mps 746 mmHg 14%
    05:00 +34°C° 0 mm 2 mps 746 mmHg 16%
    06:00 +32°C° 0 mm 1 mps 747 mmHg 17%
    07:00 +35°C° 0 mm 1 mps 747 mmHg 15%
    08:00 +39°C° 0 mm 1 mps 748 mmHg 13%
    09:00 +41°C° 0 mm 1 mps 748 mmHg 10%
    10:00 +43°C° 0 mm 1 mps 748 mmHg 10%
    11:00 +45°C° 0 mm 2 mps 748 mmHg 9%
    12:00 +47°C° 0 mm 2 mps 748 mmHg 8%
    13:00 +47°C° 0 mm 3 mps 747 mmHg 8%
    14:00 +47°C° 0 mm 3 mps 747 mmHg 8%
    15:00 +47°C° 0 mm 3 mps 746 mmHg 8%
    16:00 +45°C° 0 mm 3 mps 746 mmHg 11%
    17:00 +42°C° 0 mm 4 mps 746 mmHg 14%
    18:00 +40°C° 0 mm 4 mps 746 mmHg 17%
    19:00 +38°C° 0 mm 4 mps 747 mmHg 19%
    20:00 +37°C° 0 mm 3 mps 747 mmHg 20%
    21:00 +36°C° 0 mm 3 mps 747 mmHg 21%
    22:00 +35°C° 0 mm 3 mps 747 mmHg 21%
    23:00 +34°C° 0 mm 2 mps 747 mmHg 22%
    Show more